Location: Geroldsau
(48.7259°N, 8.2466°E)
Time: 02:50:35
(UTC+00:00)

Lacrosse 5 rocket - Visible Passes

Search period start: 23 October 2021 00:00
Search period end: 02 November 2021 00:00
Orbit: 463 x 629 km, 57.0° (Epoch: 22 October)

Date Brightness Start Highest point End Pass type
(mag) Time Alt. Az. Time Alt. Az. Time Alt. Az.
23 Oct 2.3 03:21:48 46° NNE 03:21:48 46° NNE 03:25:07 10° NE visible
23 Oct 2.7 04:57:25 14° WNW 05:00:32 29° N 05:04:31 10° NE visible
24 Oct 2.7 03:15:52 36° NNE 03:15:52 36° NNE 03:18:48 10° NE visible
24 Oct 2.8 04:51:28 15° WNW 04:54:21 28° N 04:58:17 10° NE visible
25 Oct 3.0 03:09:53 30° NNE 03:09:53 30° NNE 03:12:28 10° NE visible
25 Oct 2.9 04:45:29 16° NW 04:48:10 28° N 04:52:04 10° ENE visible
26 Oct 3.3 03:03:52 26° NNE 03:03:52 26° NNE 03:06:09 10° NE visible
26 Oct 2.9 04:39:28 17° NW 04:41:58 27° N 04:45:52 10° ENE visible
27 Oct 3.6 02:57:51 23° NNE 02:57:51 23° NNE 02:59:50 10° NE visible
27 Oct 2.9 04:33:27 18° NW 04:35:46 28° N 04:39:41 10° ENE visible
28 Oct 3.8 02:51:49 20° NE 02:51:49 20° NE 02:53:32 10° NE visible
28 Oct 2.9 04:27:25 19° NW 04:29:35 28° N 04:33:31 10° ENE visible
29 Oct 4.0 02:45:48 18° NE 02:45:48 18° NE 02:47:14 10° NE visible
29 Oct 2.9 04:21:24 21° NNW 04:23:23 30° N 04:27:23 10° ENE visible
30 Oct 4.2 02:39:46 16° NE 02:39:46 16° NE 02:40:58 10° NE visible
30 Oct 2.8 04:15:22 23° NNW 04:17:10 31° NNE 04:21:13 10° ENE visible
31 Oct 4.3 02:33:46 15° NE 02:33:46 15° NE 02:34:43 10° NE visible
31 Oct 2.8 04:09:22 26° NNW 04:10:57 33° NNE 04:15:05 10° E visible
01 Nov 4.5 02:27:48 13° NE 02:27:48 13° NE 02:28:29 10° NE visible
01 Nov 2.6 04:03:24 30° NNW 04:04:43 36° NNE 04:08:56 10° E visible
01 Nov 1.6 05:39:44 10° WNW 05:44:12 75° SW 05:48:46 10° SE visible
